Temperature
15 15 15 16 19 20 21 21 20 19 20 18 18 19 20 20 20 18 13 13 13 13 13 13 14 14 14 14 14 14 14 14 14 14 14 14 14 15 15 15 15 15 15 14 14 14 14 14 14
14 15 15 17 20 21 21 20 20 19 18 16 16 17 18 17 15 13 13 13 13 13 13 13 13 13 13 13 13 14 14 14 14 14 14 14 14 14 14 14 14 14 14 14 14 14 14 14 14
14 15 16 18 19 21 21 19 19 18 16 16 17 16 17 16 13 12 12 13 12 12 13 13 13 13 13 13 13 13 14 14 14 14 14 14 14 14 14 14 14 14 14 14 14 14 14 14 14
14 15 16 18 19 19 19 19 18 17 16 15 16 17 14 13 12 12 12 12 12 12 12 12 13 13 13 13 13 13 13 13 14 14 14 14 14 14 14 14 14 14 14 14 14 14 14 14 14
14 16 18 18 18 18 18 17 16 17 17 16 16 17 15 12 12 12 12 12 12 12 12 12 12 12 13 13 13 13 13 13 13 13 13 13 13 14 14 14 14 14 14 14 14 14 14 14 14
14 17 18 18 18 17 17 16 16 17 17 16 15 16 14 12 12 12 12 12 12 12 12 12 12 12 12 13 13 13 13 13 13 13 13 13 13 13 13 13 13 14 14 14 14 13 14 14 14
15 16 17 18 17 17 16 15 16 16 16 15 15 16 14 12 11 11 11 11 11 12 12 12 12 12 12 12 12 13 13 13 13 13 13 13 13 13 13 13 13 13 13 13 13 13 13 13 13
13 16 16 16 17 17 15 14 14 15 15 13 13 15 14 11 11 11 11 11 11 11 11 12 12 12 12 12 12 12 12 12 12 13 13 13 13 13 13 13 13 13 13 13 13 13 13 13 13
12 15 16 16 16 16 14 14 13 12 13 12 12 12 12 11 11 10 10 11 11 11 11 11 11 11 12 12 12 12 12 12 12 12 12 12 12 12 12 12 13 12 12 12 13 13 13 13 12
13 15 15 15 15 15 13 13 13 13 13 13 12 11 11 11 10 10 10 10 10 11 11 11 11 11 11 12 12 12 12 12 12 12 12 12 12 12 12 12 12 12 12 12 12 12 12 12 12
12 14 13 13 12 12 12 12 12 13 14 14 13 11 10 10 10 10 10 10 10 10 11 11 11 11 11 11 11 11 11 11 11 11 11 11 11 11 11 11 11 12 12 11 12 12 11 12 11
12 12 12 12 10 11 11 11 12 12 12 11 11 10 10 10 9 9 9 9 10 10 10 10 11 11 11 11 11 11 11 11 11 11 11 11 11 11 11 11 11 11 11 11 11 11 11 11 11
11 11 10 10 10 10 10 10 11 11 10 10 9 9 9 9 9 9 9 9 9 10 10 10 10 10 10 10 10 10 10 10 10 10 10 10 10 10 10 10 10 10 10 10 10 10 10 10 10
11 10 10 10 10 9 10 10 10 10 9 9 9 9 9 9 8 8 8 9 9 9 9 10 10 10 10 10 10 10 10 10 10 10 10 10 10 10 10 10 10 10 10 10 10 10 10 10 10
9 10 11 10 10 10 10 11 10 10 9 9 9 9 8 8 8 8 8 8 9 9 9 9 9 9 9 9 9 9 9 9 9 9 9 9 9 9 9 9 9 9 9 9 9 9 9 9 9
10 11 11 11 10 9 10 12 11 9 9 9 9 8 8 8 8 8 8 8 8 8 9 9 9 9 9 9 9 9 9 9 9 9 9 9 9 9 9 9 9 9 9 8 8 8 9 9 9
11 11 11 11 10 9 10 11 11 8 8 9 9 8 8 7 7 7 7 8 8 8 8 8 8 8 8 8 8 8 8 8 8 8 8 8 8 8 8 8 8 8 8 8 8 8 8 8 8
11 11 11 11 10 9 9 10 10 9 8 8 8 8 8 7 7 7 7 7 7 7 7 7 7 7 7 7 8 8 8 8 8 8 8 8 8 8 7 8 8 8 8 8 7 7 8 8 8
9 9 10 10 9 8 9 9 10 9 8 8 8 8 7 7 6 6 6 6 7 7 7 7 7 7 7 7 7 7 7 7 7 7 7 7 7 7 7 7 7 7 7 7 7 7 7 7 7
9 9 9 9 8 8 8 8 9 9 8 7 7 7 6 6 5 5 6 6 6 6 6 6 6 6 6 6 6 7 6 6 7 7 7 7 6 6 6 6 7 7 6 6 6 6 6 6 6
8 8 8 8 8 7 7 9 9 8 7 6 6 5 5 5 5 5 5 5 5 6 6 6 6 6 6 6 6 6 6 6 6 6 6 6 6 6 6 6 6 6 6 6 6 6 6 6 6
8 7 7 7 7 8 8 9 10 8 8 7 6 5 5 4 4 4 4 5 5 5 5 5 5 5 5 5 5 5 5 5 5 5 5 5 5 6 6 5 5 5 5 5 5 5 5 5 5
7 6 6 6 6 7 7 7 10 8 7 7 6 5 4 4 3 3 4 4 4 5 5 5 5 5 5 4 4 4 4 4 4 5 5 5 5 5 5 5 5 5 5 5 5 5 5 4 4
5 6 5 6 6 7 7 8 10 9 8 7 6 5 4 3 3 3 3 4 4 4 4 4 4 4 4 4 4 4 4 4 4 4 4 4 4 4 5 4 4 4 4 4 4 4 4 4 4
5 6 7 8 8 9 6 7 9 8 7 6 6 5 4 3 3 3 3 3 3 3 4 4 4 4 4 3 3 3 3 3 3 3 3 3 4 4 4 4 4 4 4 4 4 4 4 4 4
5 6 7 8 9 9 6 7 8 6 5 5 5 4 3 3 2 2 2 2 3 3 3 3 3 3 3 3 3 3 3 3 3 3 3 3 3 3 3 3 3 4 4 4 3 3 3 3 3
5 5 5 6 5 6 8 7 7 6 5 5 4 4 3 3 2 2 2 2 2 2 2 2 3 2 3 3 2 2 2 2 2 2 2 2 3 3 3 3 3 3 3 3 3 3 3 3 3
4 4 4 5 6 8 9 8 8 7 6 5 4 4 3 2 2 2 2 2 2 2 2 2 2 2 2 2 2 2 2 2 2 2 2 2 2 2 2 3 3 2 3 3 2 2 2 2 2
4 4 4 5 5 7 8 9 7 6 5 5 4 3 2 2 2 1 1 1 1 1 1 1 1 1 1 1 1 1 1 2 2 2 2 2 2 2 2 2 2 2 2 2 2 2 2 2 2
4 4 4 5 5 5 6 8 6 5 5 4 4 3 2 1 1 1 1 1 1 1 1 1 1 1 1 1 1 1 1 1 1 1 1 2 2 2 2 2 2 1 1 1 1 1 1 1 1
Wind_Speed
4 2 2 3 4 5 9 7 5 5 4 2 1 3 3 3 2 1 4 3 3 4 4 5 5 5 5 5 5 5 5 5 6 6 6 6 5 6 6 5 5 5 6 6 5 6 6 6 6
3 1 2 3 6 9 8 7 7 5 2 3 2 3 3 2 2 3 3 3 3 4 4 5 5 5 5 5 5 5 5 5 5 5 5 5 5 5 5 5 5 5 5 5 5 5 5 5 5
1 1 3 4 7 10 7 4 5 4 3 3 3 2 1 1 2 2 2 3 3 4 4 5 5 5 5 5 5 5 5 4 4 4 4 4 4 4 4 4 4 4 4 5 4 4 4 4 4
2 3 3 6 11 9 6 3 3 4 4 3 3 3 2 2 1 2 4 4 4 4 4 5 5 5 5 5 5 5 5 4 4 4 4 3 3 3 4 4 4 4 4 4 4 4 4 3 3
2 3 6 8 11 8 6 3 4 6 4 4 4 3 3 2 2 4 4 4 3 3 3 4 5 4 4 4 5 5 4 4 4 4 3 3 3 3 3 3 3 3 3 3 3 3 3 3 2
3 4 7 11 12 8 6 5 5 6 5 3 4 4 2 3 3 4 4 3 3 3 3 4 4 4 4 4 4 4 4 3 3 3 3 3 2 2 2 3 3 2 2 2 2 2 2 2 2
4 5 8 10 10 9 6 5 7 6 6 4 3 4 4 4 3 3 3 2 2 3 3 2 3 3 3 3 4 4 3 3 3 3 2 2 2 1 2 2 2 1 2 2 2 1 1 1 1
3 4 7 9 11 9 5 4 4 6 5 2 3 4 3 3 3 3 3 2 2 2 2 2 1 1 2 2 3 3 2 2 2 2 2 1 1 1 2 2 1 1 1 1 1 1 2 2 2
3 6 9 10 8 6 4 5 3 2 3 3 3 2 1 4 5 4 3 2 2 1 1 1 1 0 1 2 2 2 2 2 1 1 1 0 1 2 2 2 1 1 1 1 2 2 2 2 3
4 7 10 5 4 4 4 4 4 4 6 5 5 3 3 4 5 5 4 4 3 2 1 0 1 1 1 1 2 2 1 1 0 0 1 1 1 2 2 2 2 2 2 2 2 2 3 4 4
4 7 6 5 3 2 4 4 3 6 7 7 6 5 5 5 5 6 5 4 3 2 2 1 1 1 1 1 1 1 1 1 1 1 1 2 1 1 2 1 2 2 3 2 2 4 4 4 4
4 6 6 4 3 3 4 4 4 7 7 4 4 4 5 6 6 6 5 4 3 3 2 2 2 2 2 2 1 2 1 1 1 1 2 2 1 2 2 1 2 2 2 2 2 3 4 5 5
7 6 4 3 3 4 4 6 6 7 6 3 2 3 5 5 5 5 4 4 3 3 2 2 2 2 2 2 2 2 2 2 2 2 2 2 2 2 2 2 2 3 2 3 3 3 4 5 5
4 5 5 4 4 4 5 7 6 7 4 4 4 4 4 4 4 3 4 4 3 3 3 2 3 2 2 2 2 2 2 2 2 2 2 3 2 2 2 3 3 3 3 3 3 4 4 4 4
3 4 4 5 4 3 4 8 8 6 5 5 5 4 3 4 4 4 4 4 3 3 3 2 2 2 2 2 2 2 2 3 3 2 3 3 3 3 3 3 3 3 3 4 4 4 4 4 5
3 4 6 4 4 3 5 10 5 3 5 6 5 4 4 3 4 3 3 3 3 2 3 2 2 2 2 2 2 2 2 3 3 2 3 3 3 3 3 3 3 3 3 3 3 4 4 5 5
4 6 7 5 3 3 7 9 4 3 5 6 6 5 4 3 3 3 3 3 3 2 2 2 2 2 2 2 2 2 2 3 2 2 2 3 3 3 3 3 3 3 3 3 4 4 4 5 6
6 7 7 7 2 4 8 11 8 5 5 6 6 5 5 4 3 3 2 2 1 1 1 1 2 2 2 2 1 2 2 2 2 2 2 3 3 3 3 3 3 3 3 4 4 5 5 5 5
4 6 8 6 3 5 9 12 10 7 6 6 6 5 4 4 2 1 1 1 1 1 1 1 2 2 2 1 1 2 2 2 2 3 3 3 3 3 3 3 3 3 4 4 5 5 5 5 4
5 6 7 5 3 5 8 12 10 7 6 5 5 4 4 3 2 1 1 1 1 1 1 2 2 2 2 2 2 2 3 3 3 3 3 3 3 3 3 3 3 3 4 5 5 4 4 4 4
5 7 6 5 5 5 7 9 8 4 4 3 3 3 2 3 3 2 2 2 2 2 2 2 3 3 3 3 2 2 2 2 3 3 3 4 4 4 4 4 4 4 4 5 5 5 6 5 5
5 4 5 5 5 4 3 6 6 5 4 3 2 2 2 2 2 3 3 3 2 3 3 3 3 3 3 2 3 3 3 3 4 4 4 4 4 4 4 5 5 4 4 5 5 6 6 7 6
3 2 4 5 5 5 5 6 5 3 5 5 3 2 2 2 2 3 3 3 3 2 3 3 2 3 3 3 3 4 4 4 4 4 4 5 4 4 4 5 5 5 5 5 6 5 6 6 6
1 1 2 3 4 5 6 7 5 3 5 4 3 2 2 2 2 2 3 2 2 3 2 2 2 3 3 3 4 4 4 4 5 5 4 4 4 4 5 5 5 5 5 5 6 6 7 6 7
1 1 2 3 4 4 2 5 5 2 3 4 3 2 2 2 2 2 3 3 3 3 3 3 3 3 3 4 4 4 5 5 6 6 5 5 4 4 5 5 5 5 5 5 6 6 6 7 7
3 2 2 3 3 2 3 6 2 1 1 2 2 2 2 2 2 2 3 3 3 3 3 3 4 4 4 4 4 5 5 4 5 6 6 6 5 5 5 5 5 5 5 5 5 5 5 5 6
2 3 1 1 1 4 4 4 4 1 1 1 1 1 2 2 3 3 3 4 3 3 4 4 4 4 4 4 5 5 5 5 6 6 6 6 5 5 6 5 5 5 5 5 5 4 5 5 6
1 2 2 2 3 4 4 4 3 2 1 1 2 2 3 3 3 4 4 4 3 3 4 4 4 4 5 5 5 4 5 5 6 5 6 6 6 5 5 5 5 5 5 5 5 5 5 6 5
2 2 2 2 2 3 4 3 0 2 2 2 3 3 3 4 4 4 4 4 3 3 3 3 4 4 5 5 5 5 5 5 5 5 6 5 5 5 5 5 5 5 5 5 5 6 6 6 6
3 4 4 3 3 3 4 4 2 1 1 2 2 3 3 4 4 4 5 4 3 3 4 4 4 4 5 5 5 5 5 5 5 5 5 5 5 5 5 5 5 5 5 5 5 6 6 6 6
Wind_Direction
323 303 245 217 213 221 229 217 215 193 193 190 182 206 215 219 256 89 83 99 95 113 114 112 89 86 97 108 110 104 98 96 96 96 103 105 104 102 98 92 88 85 83 85 90 95 100 103 101
314 268 217 219 228 227 224 215 210 200 179 158 176 201 200 179 59 90 111 103 113 114 114 104 88 82 92 100 101 101 99 102 101 99 100 109 108 107 102 98 93 87 84 82 81 91 97 99 105
267 254 214 209 227 233 219 192 202 183 170 187 181 199 233 153 126 123 104 129 125 117 114 101 91 83 83 94 98 98 96 96 97 96 93 101 112 111 107 104 98 91 86 82 79 89 97 107 106
223 191 208 226 227 230 230 188 173 175 181 204 203 174 146 73 103 114 122 135 126 116 112 104 94 90 87 89 90 93 90 91 92 92 92 92 102 105 106 106 101 94 90 85 84 96 97 104 112
221 211 210 225 231 227 229 225 207 202 194 190 206 206 173 122 94 116 130 131 123 112 104 106 99 93 90 93 86 82 85 79 80 80 84 84 89 99 101 103 108 105 100 101 97 97 102 106 112
194 215 224 229 226 224 223 219 213 216 210 199 203 209 183 135 121 122 129 130 116 106 104 109 106 96 95 98 91 80 71 77 76 76 72 67 70 94 120 115 108 123 126 121 120 110 114 129 134
213 213 232 236 232 228 219 215 217 223 219 214 216 210 175 164 131 134 134 128 112 106 100 98 123 124 118 107 98 86 74 66 66 69 67 66 70 91 138 134 127 137 161 150 140 141 161 181 182
229 215 231 233 234 231 209 212 232 233 235 228 230 223 191 168 145 148 136 130 120 109 91 89 97 131 153 146 112 94 90 74 64 66 55 70 118 153 158 158 152 168 174 176 183 204 230 221 204
213 221 232 229 229 222 198 220 226 247 226 221 231 267 36 135 155 164 165 167 156 132 91 62 61 126 183 173 140 136 124 105 102 86 59 182 219 221 194 187 180 182 186 209 219 228 236 227 206
205 223 234 237 237 226 213 226 226 216 224 226 218 213 169 165 178 186 197 199 198 201 219 315 331 320 231 193 189 200 202 174 221 317 286 274 269 247 232 187 185 184 191 207 214 229 224 230 225
204 228 234 231 230 228 228 233 234 232 241 244 239 216 188 192 202 208 211 211 213 216 234 274 293 299 279 238 239 239 237 239 254 277 303 291 281 259 230 212 188 194 198 212 209 226 232 239 238
210 233 236 230 221 233 246 249 243 240 254 289 268 228 197 204 211 216 220 222 222 223 236 260 274 280 278 257 246 250 262 268 275 270 290 286 296 290 262 244 249 237 238 249 247 251 250 249 244
219 227 231 228 230 238 249 252 260 253 261 262 236 200 204 213 222 227 230 233 234 237 246 258 262 261 264 253 251 256 258 264 265 262 270 275 276 276 270 254 246 257 262 257 260 258 257 254 252
216 222 236 243 240 238 248 258 252 258 249 232 221 218 214 215 221 238 243 234 232 240 249 261 258 266 261 253 252 257 257 257 258 260 268 269 266 269 272 262 254 257 264 262 261 258 261 260 256
202 224 229 229 232 234 255 253 237 250 234 231 230 232 231 231 229 236 253 242 239 248 251 258 262 268 261 260 259 258 258 256 257 263 264 270 267 265 272 259 251 259 264 260 260 260 262 264 259
202 225 234 224 234 230 240 256 237 226 224 236 237 238 236 235 238 247 261 253 252 260 258 253 261 254 251 257 267 261 257 256 259 264 272 278 278 274 267 258 248 252 258 255 254 261 262 264 264
215 237 245 244 223 238 235 260 259 235 235 248 251 251 248 249 256 259 268 258 253 266 268 254 252 254 254 254 257 261 256 255 262 264 271 279 277 273 269 260 262 248 249 248 251 260 263 266 270
233 241 247 248 237 248 246 255 262 248 251 256 258 260 254 250 258 270 291 289 262 272 281 286 266 274 268 259 260 263 256 262 266 263 269 279 277 269 265 253 263 261 254 250 249 256 265 266 270
249 246 255 259 261 260 254 262 264 257 252 256 255 255 256 256 271 304 346 341 308 297 305 308 311 296 285 272 270 269 270 275 274 273 272 275 277 273 264 259 257 262 257 257 255 258 257 261 267
238 248 259 266 264 264 269 269 263 251 245 252 264 266 262 260 270 293 319 333 314 311 306 299 297 304 292 273 266 267 270 271 271 277 269 266 270 273 263 257 255 257 262 259 253 254 256 255 246
244 247 260 272 287 250 277 266 235 227 227 248 271 276 273 268 272 278 292 304 311 307 301 294 291 290 296 299 280 270 257 267 268 279 280 270 266 268 267 258 257 254 249 250 252 246 248 248 247
252 249 262 264 263 250 251 274 235 219 219 237 267 281 284 289 296 296 289 294 295 297 296 290 291 293 294 291 275 260 259 268 271 276 276 280 271 267 265 256 257 253 247 248 252 253 251 242 245
255 279 250 243 241 257 231 249 256 199 239 246 254 280 300 304 298 301 300 296 300 305 303 301 297 297 296 286 271 267 267 273 276 274 275 280 278 269 264 257 256 254 250 250 250 253 252 248 248
172 163 178 201 224 245 231 230 261 214 238 243 242 265 290 300 308 314 315 311 317 324 316 311 302 301 301 288 277 272 275 279 277 276 277 279 280 276 267 261 259 255 253 251 250 249 249 252 252
194 210 234 218 222 242 170 229 257 280 245 228 237 253 277 294 316 329 326 321 326 326 320 307 300 298 298 290 284 279 279 280 276 275 274 275 274 273 266 262 261 259 256 255 254 251 250 250 253
210 236 246 261 259 272 201 238 263 6 262 240 235 244 281 310 328 329 322 313 314 318 316 308 300 298 296 292 291 287 285 280 279 275 273 270 269 268 266 262 260 262 261 260 256 253 253 250 251
184 212 294 278 301 271 248 258 277 253 262 228 227 271 295 312 324 323 316 312 313 318 315 307 300 299 301 298 294 287 285 282 280 278 276 273 273 274 265 263 263 264 262 257 256 255 255 254 252
318 161 177 214 260 265 265 257 256 233 254 246 252 276 303 307 311 320 318 314 308 310 310 306 299 296 298 298 294 289 285 281 281 280 279 280 279 275 269 265 264 264 261 258 255 258 260 261 259
162 179 214 220 265 267 275 268 70 232 230 251 259 276 298 303 308 315 317 317 307 311 312 306 300 299 300 297 291 287 285 284 284 282 283 283 280 277 271 265 266 268 267 261 256 256 260 259 261
237 222 201 228 231 238 266 275 71 222 279 289 283 288 295 301 309 314 318 320 322 313 312 310 303 301 302 300 293 289 288 287 286 288 289 290 287 285 277 268 265 266 266 262 258 257 258 255 258
Height
1505 1506 1508 1510 1509 1503 1499 1498 1499 1502 1504 1507 1508 1507 1506 1506 1508 1514 1515 1512 1513 1514 1515 1516 1516 1517 1518 1518 1519 1519 1520 1520 1520 1520 1520 1521 1521 1521 1521 1522 1522 1522 1522 1522 1522 1522 1522 1522 1522
1505 1506 1509 1509 1503 1499 1496 1497 1500 1502 1506 1508 1509 1509 1508 1509 1512 1512 1512 1512 1513 1514 1515 1515 1516 1517 1517 1518 1518 1519 1519 1519 1519 1520 1520 1520 1520 1521 1521 1521 1521 1521 1521 1521 1521 1521 1521 1522 1522
1505 1506 1509 1505 1499 1493 1493 1498 1500 1505 1507 1508 1509 1509 1509 1510 1512 1512 1511 1512 1513 1514 1515 1515 1515 1516 1517 1517 1518 1518 1518 1519 1519 1519 1519 1519 1520 1520 1520 1520 1520 1521 1521 1521 1521 1521 1521 1521 1521
1506 1508 1508 1503 1497 1495 1496 1499 1503 1505 1507 1508 1508 1509 1510 1511 1511 1511 1511 1512 1513 1514 1515 1515 1515 1515 1516 1516 1517 1517 1517 1518 1518 1518 1518 1519 1519 1519 1519 1519 1519 1520 1520 1520 1520 1520 1520 1520 1520
1505 1506 1503 1499 1496 1497 1499 1503 1504 1504 1505 1507 1508 1507 1509 1510 1509 1510 1510 1511 1513 1513 1514 1514 1514 1515 1515 1515 1516 1516 1516 1516 1517 1517 1517 1518 1518 1518 1518 1518 1518 1518 1519 1519 1519 1519 1519 1520 1520
1506 1503 1498 1494 1494 1497 1500 1503 1505 1503 1505 1507 1507 1507 1508 1509 1509 1509 1510 1511 1512 1512 1513 1513 1513 1514 1514 1514 1514 1515 1515 1515 1515 1516 1516 1516 1516 1516 1516 1517 1517 1517 1517 1518 1518 1518 1518 1518 1519
1504 1500 1495 1493 1493 1496 1500 1503 1503 1503 1504 1506 1507 1506 1508 1508 1508 1508 1509 1510 1511 1512 1512 1512 1513 1513 1513 1513 1513 1514 1514 1514 1514 1514 1514 1515 1514 1515 1515 1515 1515 1516 1516 1516 1516 1517 1517 1517 1517
1502 1501 1496 1494 1493 1494 1500 1503 1503 1504 1503 1506 1506 1505 1506 1508 1507 1507 1508 1509 1510 1510 1511 1511 1511 1512 1512 1512 1512 1512 1512 1512 1512 1513 1513 1513 1513 1513 1513 1513 1513 1513 1514 1514 1514 1515 1515 1515 1515
1502 1500 1493 1492 1494 1495 1501 1502 1503 1503 1504 1504 1505 1505 1505 1505 1506 1507 1507 1508 1508 1509 1509 1509 1510 1510 1510 1511 1511 1511 1511 1510 1511 1511 1511 1511 1511 1511 1511 1511 1511 1511 1511 1512 1512 1512 1513 1513 1513
1500 1495 1491 1494 1496 1497 1500 1501 1502 1502 1502 1502 1503 1503 1503 1504 1504 1505 1506 1506 1506 1506 1507 1508 1508 1508 1508 1508 1508 1509 1509 1509 1509 1508 1508 1508 1508 1508 1508 1508 1509 1509 1509 1509 1510 1510 1510 1511 1511
1497 1494 1495 1498 1499 1500 1500 1501 1501 1501 1499 1500 1501 1501 1502 1502 1503 1504 1504 1504 1504 1504 1505 1505 1506 1506 1506 1506 1506 1506 1506 1507 1506 1506 1506 1506 1506 1506 1506 1506 1506 1506 1507 1507 1507 1507 1508 1508 1508
1497 1496 1497 1497 1499 1500 1500 1500 1500 1499 1498 1499 1499 1499 1500 1500 1501 1501 1502 1502 1502 1502 1502 1503 1503 1504 1504 1504 1504 1504 1504 1504 1504 1504 1504 1504 1503 1503 1503 1503 1503 1503 1504 1504 1504 1504 1505 1505 1505
1496 1496 1497 1498 1499 1499 1499 1499 1498 1497 1498 1498 1497 1497 1498 1498 1499 1499 1500 1500 1500 1500 1500 1501 1501 1501 1501 1501 1501 1501 1501 1501 1501 1501 1501 1501 1501 1501 1501 1500 1500 1501 1501 1501 1501 1501 1501 1501 1501
1495 1496 1496 1497 1497 1498 1498 1497 1498 1494 1496 1496 1496 1496 1496 1496 1496 1496 1497 1497 1497 1497 1498 1498 1498 1498 1498 1499 1499 1499 1499 1498 1498 1498 1498 1498 1498 1498 1498 1498 1497 1498 1498 1498 1498 1498 1498 1498 1498
1496 1495 1494 1495 1496 1497 1498 1493 1493 1493 1494 1494 1494 1494 1493 1494 1494 1494 1494 1494 1494 1494 1495 1495 1495 1495 1495 1496 1496 1496 1496 1495 1495 1495 1495 1495 1494 1494 1494 1494 1494 1494 1494 1494 1494 1494 1494 1494 1494
1495 1492 1489 1491 1494 1495 1498 1486 1489 1491 1491 1491 1491 1491 1492 1491 1491 1491 1491 1491 1491 1491 1492 1492 1492 1492 1492 1492 1492 1492 1492 1492 1492 1492 1491 1491 1491 1491 1491 1491 1490 1490 1490 1491 1491 1491 1490 1490 1490
1490 1487 1486 1489 1492 1493 1493 1485 1487 1489 1489 1489 1489 1489 1489 1489 1489 1489 1488 1488 1488 1488 1488 1489 1489 1489 1489 1489 1489 1489 1489 1489 1488 1488 1488 1488 1487 1487 1487 1487 1487 1486 1486 1487 1487 1487 1486 1486 1486
1486 1484 1485 1486 1490 1492 1489 1485 1485 1487 1488 1487 1487 1486 1486 1486 1486 1486 1485 1485 1485 1485 1485 1485 1486 1486 1485 1485 1485 1485 1485 1485 1485 1485 1484 1484 1484 1484 1483 1483 1483 1483 1483 1483 1483 1483 1482 1482 1482
1489 1488 1486 1486 1491 1491 1486 1484 1483 1484 1485 1485 1484 1484 1484 1483 1483 1483 1482 1482 1482 1482 1482 1482 1482 1482 1482 1482 1482 1482 1481 1481 1481 1481 1481 1480 1480 1480 1479 1479 1479 1479 1479 1478 1478 1478 1478 1478 1478
1491 1489 1486 1488 1491 1491 1486 1483 1480 1481 1482 1482 1482 1481 1481 1481 1481 1480 1480 1479 1479 1479 1479 1479 1479 1479 1479 1478 1478 1478 1478 1478 1477 1477 1477 1476 1476 1475 1475 1475 1475 1475 1475 1474 1474 1474 1473 1473 1474
1490 1489 1488 1489 1490 1490 1488 1476 1475 1478 1480 1481 1481 1480 1479 1479 1478 1477 1477 1476 1476 1476 1476 1476 1475 1475 1475 1474 1474 1474 1474 1474 1473 1473 1472 1472 1472 1471 1471 1471 1471 1471 1471 1470 1470 1469 1469 1469 1470
1488 1491 1492 1492 1490 1482 1486 1473 1467 1473 1476 1478 1478 1478 1477 1477 1476 1475 1474 1473 1473 1473 1473 1473 1472 1472 1472 1471 1471 1470 1470 1470 1469 1469 1468 1468 1468 1467 1467 1467 1466 1466 1466 1466 1466 1465 1465 1465 1465
1490 1493 1493 1492 1490 1487 1483 1482 1463 1471 1472 1473 1475 1475 1475 1475 1474 1473 1471 1471 1470 1470 1469 1469 1469 1469 1469 1468 1468 1467 1466 1466 1466 1465 1465 1464 1464 1463 1463 1462 1462 1462 1462 1462 1461 1461 1461 1461 1461
1494 1493 1492 1491 1488 1482 1478 1477 1461 1465 1468 1469 1472 1473 1473 1473 1472 1470 1469 1469 1468 1467 1466 1466 1466 1465 1465 1465 1464 1464 1463 1463 1462 1462 1461 1460 1460 1459 1459 1458 1458 1458 1457 1457 1457 1457 1457 1457 1456
1493 1489 1483 1479 1477 1469 1480 1478 1464 1465 1468 1469 1471 1472 1472 1471 1470 1468 1467 1466 1465 1464 1464 1463 1463 1462 1462 1462 1461 1461 1460 1459 1458 1458 1457 1457 1456 1455 1455 1454 1454 1454 1453 1453 1453 1453 1452 1452 1452
1492 1490 1483 1475 1467 1465 1480 1472 1463 1469 1470 1470 1471 1472 1471 1470 1469 1467 1466 1464 1463 1462 1462 1461 1460 1460 1459 1458 1458 1457 1456 1456 1455 1454 1454 1453 1452 1451 1451 1450 1450 1450 1449 1448 1449 1448 1448 1447 1447
1491 1490 1492 1488 1489 1481 1465 1466 1466 1468 1469 1470 1470 1470 1470 1468 1467 1466 1464 1463 1461 1460 1460 1459 1458 1457 1456 1456 1455 1454 1453 1452 1452 1451 1450 1449 1448 1447 1447 1446 1446 1445 1445 1444 1444 1443 1443 1443 1442
1494 1492 1492 1487 1479 1467 1460 1462 1459 1463 1466 1468 1468 1468 1468 1467 1465 1464 1462 1461 1459 1458 1457 1456 1455 1454 1454 1453 1452 1451 1450 1449 1448 1447 1446 1445 1444 1443 1442 1441 1441 1441 1440 1440 1439 1439 1439 1438 1437
1494 1494 1491 1487 1484 1473 1462 1457 1461 1463 1465 1466 1467 1467 1467 1466 1464 1462 1461 1459 1457 1456 1455 1454 1453 1452 1451 1449 1448 1447 1446 1445 1444 1443 1442 1441 1440 1438 1437 1437 1436 1436 1435 1435 1435 1434 1434 1433 1432
1492 1490 1489 1485 1484 1483 1473 1463 1464 1465 1465 1466 1466 1466 1465 1464 1463 1461 1459 1457 1456 1454 1453 1452 1450 1449 1448 1446 1445 1444 1443 1441 1440 1439 1438 1437 1435 1435 1434 1433 1432 1431 1431 1430 1430 1429 1429 1428 1427